星链-36800(STARLINK-36800)

导读

STARLINK-36800是美国SpaceX公司星链(Starlink)卫星互联网星座的一员,于2026年2月15日前后,由猎鹰9火箭完成发射,该次发射是SpaceX在情人节期间完成的星链组网任务。星链项目计划在低地球轨道部署数万颗小型卫星,旨在为全球提供高速低延迟宽带互联网服务,尤其填补偏远地区网络覆盖空白,STARLINK-36800的成功入轨,将进一步推进星链星座的全球组网进程。

基本信息
目录编号:
67797
目录名称:
STARLINK-36800
国际标识:
2026-032A
轨道中心:
EARTH
卫星名称:
星链-36800
卫星全名:
星链-36800(STARLINK-36800)
卫星状态:
在轨 (已飞行118 天)
发射日期:
2026-02-15 UTC
国别 :
美国 (US)
星等 :
--
轨道信息
数据来源 国际轨道数据
星历时间: 2026-06-12T10:18:45+0800
23小时前
查看轨道信息
半长轴: 6843.657km
偏心率: 0.0001472
轨道倾角: 97.285°
近地点辐角 97.121°
升交点赤经 351.003°
平近点角 263.020°
近地点: 464.512km
远地点: 466.528km
周期: 93.906分钟
每日圈数: 15.334529
详细信息
固有亮度:
5
最大亮度:
2.5
卫星平台:
Starlink V1.0
覆盖范围:
全球
运营商:
太空探索技术公司
运营商所在国:
美国
制造商(研发单位):
太空探索技术公司
制造商所在国:
美国
使用方式:
暂无
卫星简介
Starlink 计划是 SpaceX 推出的全球卫星互联网项目,通过发射低轨道卫星,为全球尤其是偏远地区提供高速、低延迟的互联网服务。自 2019 年起,Starlink 已部署数千颗卫星,旨在缩小全球数字鸿沟,推动互联网普及。该项目还为军事、航空等行业提供通信支持,带来广泛经济效益。
2D轨道图
3D轨道图
轨道高度分析图
轨道倾角分析图
轨道综合分析图
查看轨道综合分析图